Wind_Gust
17 16 16 16 16 16 16 16 17 18 19 20 20 20 20 20 19 18 19 19 19 19 20 21 22 22 23 24 25 25 23 20 23 19 13 29 13 22 25 24 18 18 15 6 6 5 5 7 9 8 10 7 10 13 16 13 14 9 16 13 12 12 13 14 20 16 6 14 12 14 9 6 4 7 12 21 22 24 22 22 21 25 24 25 27 27 27 26
16 16 16 16 16 16 16 16 17 18 19 19 20 20 20 20 19 18 19 19 19 20 20 20 22 22 23 24 25 25 22 19 21 20 32 20 14 20 20 22 21 16 12 6 9 10 9 11 9 9 11 10 7 12 6 13 11 13 11 13 17 12 21 16 16 13 11 15 14 18 12 6 6 4 10 17 18 24 25 18 22 27 24 25 25 25 25 25
16 16 16 16 17 16 16 16 17 17 19 20 21 21 20 19 19 20 20 19 19 20 20 22 22 23 24 24 24 23 22 21 17 20 33 24 33 25 20 22 19 16 17 7 8 13 13 12 15 14 14 13 10 15 13 18 13 12 9 13 17 9 15 20 21 12 14 19 19 21 14 11 10 12 7 12 15 25 26 26 17 26 24 24 23 22 23 24
16 16 16 17 16 17 17 17 18 19 20 21 21 21 20 19 19 20 19 19 19 20 21 21 22 23 24 24 24 23 16 17 16 19 10 13 30 32 28 23 19 19 13 8 7 12 13 13 11 18 15 15 11 16 15 14 17 11 18 15 14 12 20 26 18 18 14 13 14 15 11 13 15 13 8 13 20 17 21 24 29 27 28 27 24 24 23 25
16 16 17 17 17 17 17 17 18 19 20 21 20 20 19 19 19 19 19 18 18 19 20 22 22 24 24 24 25 17 17 9 14 5 6 9 12 23 28 27 18 15 15 4 5 13 15 16 17 14 15 16 14 8 16 13 19 9 17 15 14 16 15 21 17 14 19 18 14 12 11 12 11 13 15 12 13 13 19 16 29 31 32 32 29 24 25 27
16 16 16 17 17 17 18 18 19 20 20 20 21 20 19 19 19 19 18 18 19 19 20 21 23 23 24 24 22 13 7 13 9 10 10 11 14 17 21 18 13 11 8 6 9 6 10 13 14 16 17 11 8 15 11 16 14 20 12 9 17 22 22 18 20 17 15 14 10 7 8 11 12 13 10 19 10 15 20 23 22 26 26 25 26 28 27 28
16 17 16 16 17 18 18 19 19 20 19 20 20 20 19 19 19 18 19 18 19 19 20 21 22 23 23 21 21 11 12 27 14 10 12 14 18 19 16 13 11 8 7 8 11 14 9 14 14 11 10 14 13 19 17 15 15 15 21 7 13 17 21 16 19 11 13 17 20 10 13 10 11 9 9 18 14 23 23 23 23 23 23 24 26 21 29 29
16 16 17 17 17 18 19 20 21 21 20 20 20 19 19 20 19 19 18 19 19 20 20 21 21 21 21 20 16 9 13 22 26 8 12 15 10 15 18 11 10 7 7 14 13 15 12 13 15 11 13 13 9 17 13 14 13 17 21 12 14 11 12 13 17 14 9 10 14 9 12 14 9 7 7 12 18 23 24 23 25 24 22 19 21 21 26 27
16 17 18 18 18 19 20 20 21 21 21 20 20 19 20 19 20 19 19 19 20 20 20 20 21 19 17 14 12 13 24 27 21 12 17 11 10 11 15 14 9 12 14 15 12 13 9 10 15 12 10 12 12 14 14 12 14 16 15 14 15 19 16 11 11 12 7 7 5 5 12 14 15 10 11 16 18 19 24 23 23 22 22 21 20 22 25 26
17 17 18 19 19 19 20 21 21 21 21 21 20 20 20 19 19 19 18 19 20 20 20 20 19 18 17 15 12 16 20 19 18 19 15 16 12 9 10 10 14 12 13 13 11 14 15 17 13 8 13 14 8 15 10 10 14 10 18 17 18 20 17 14 13 9 11 10 9 10 8 10 14 11 11 11 21 22 24 22 19 22 23 19 19 22 22 25
16 17 18 19 20 20 20 21 21 21 21 21 20 20 20 20 20 20 19 19 19 20 20 19 18 16 16 13 14 25 13 11 16 13 17 18 20 13 14 11 16 16 15 11 15 15 16 17 15 13 13 17 6 13 14 14 9 14 13 13 15 14 14 14 8 13 4 8 9 9 8 6 12 11 18 13 21 26 26 21 20 18 20 20 22 22 19 20
17 17 18 19 19 20 20 21 21 22 22 21 21 20 20 20 20 20 20 19 19 20 20 18 17 17 15 17 22 35 13 16 19 22 21 21 21 20 18 14 17 15 15 14 15 14 15 17 16 16 17 8 23 12 19 13 15 13 14 18 10 13 25 14 17 8 7 9 8 6 9 12 11 11 16 22 20 23 25 22 21 19 19 19 22 21 19 19
16 18 18 19 19 20 20 21 22 22 22 21 21 20 20 20 20 21 20 20 18 19 19 18 15 15 16 22 27 38 39 30 28 28 29 22 24 22 21 16 20 18 17 15 13 15 15 17 16 16 20 16 12 20 11 10 14 9 10 9 9 13 10 12 8 10 7 9 12 12 15 13 17 13 17 22 22 22 23 23 22 20 18 21 21 19 19 17
16 17 18 18 19 20 21 22 22 22 21 21 20 21 20 21 22 22 22 21 21 20 19 18 16 15 16 26 28 23 22 21 17 20 24 23 21 23 21 22 18 19 16 15 14 10 16 17 15 18 17 15 19 7 20 21 8 15 8 7 8 5 13 11 15 10 13 10 13 12 13 12 16 16 18 22 24 26 24 23 23 22 19 19 19 19 18 14
17 17 18 19 19 20 21 21 21 21 22 22 22 21 20 21 22 23 23 22 20 19 17 11 12 13 15 27 21 33 40 31 20 27 28 22 22 22 20 19 21 19 17 17 17 13 11 13 15 20 20 11 16 17 19 13 9 12 13 14 9 6 10 10 9 14 21 10 12 16 12 15 15 17 19 22 24 24 26 21 24 22 20 19 19 18 17 14
18 17 17 18 19 20 21 21 21 21 21 23 22 22 22 24 24 23 24 19 19 17 15 15 15 14 17 29 25 17 16 13 17 25 28 20 21 21 21 13 14 18 13 13 14 9 11 10 21 15 16 14 16 13 8 12 12 10 14 9 10 5 10 11 11 14 19 14 8 18 16 12 21 19 21 21 25 28 27 24 24 23 22 22 20 18 16 16
17 18 16 17 18 19 20 21 22 22 21 22 23 23 23 25 26 25 23 20 15 12 12 14 8 17 14 17 17 21 28 21 15 17 18 19 22 23 17 14 14 15 14 9 11 12 13 16 10 17 16 16 11 11 10 13 10 12 8 14 10 9 10 18 13 13 19 16 10 14 15 13 12 10 23 22 30 29 26 25 25 25 22 21 22 20 17 15
18 17 17 16 16 18 19 21 21 22 22 21 20 21 28 24 26 23 15 12 11 13 15 18 14 13 32 28 23 22 20 22 19 19 14 14 20 18 17 19 8 12 15 17 15 19 17 19 13 14 11 18 13 12 21 20 17 12 9 10 14 9 9 13 21 11 19 23 16 11 16 18 17 16 12 25 30 28 27 26 25 25 23 22 22 20 17 15
19 18 18 16 16 18 20 20 21 21 21 19 22 24 26 27 21 8 13 12 8 5 7 19 19 19 10 15 36 15 16 19 19 17 20 17 17 18 16 16 12 12 18 18 17 18 18 13 9 11 24 21 22 15 16 8 11 15 10 12 11 12 17 21 24 15 23 20 22 9 23 25 22 19 11 22 28 29 25 21 19 20 21 22 22 19 17 16
17 16 16 16 16 18 19 19 19 20 20 14 17 22 18 7 4 7 10 12 19 17 13 13 26 16 25 28 13 15 22 14 19 23 18 21 22 19 20 18 17 16 18 23 14 25 11 20 23 27 18 16 14 16 11 13 17 15 15 13 16 18 19 18 22 14 28 24 22 21 18 19 22 22 12 25 20 26 28 22 23 22 21 22 20 18 18 16
18 17 17 16 17 18 19 20 19 18 18 14 16 18 13 10 9 9 10 18 25 25 26 28 25 27 30 30 27 23 25 19 22 18 27 21 19 20 27 20 21 18 20 14 15 17 17 19 26 14 14 14 16 13 10 11 17 22 17 10 10 18 19 21 22 20 25 22 17 23 15 17 22 16 9 20 16 28 30 25 23 23 22 21 23 20 18 17
18 17 16 16 16 18 19 20 19 19 16 11 15 19 18 24 14 14 19 23 18 26 29 29 24 27 28 34 34 19 22 29 28 23 22 25 26 30 20 25 22 20 13 16 16 20 28 34 18 12 14 14 11 15 13 16 13 20 19 15 16 16 17 18 20 24 25 23 21 23 18 18 19 12 10 25 25 29 29 31 31 31 25 23 22 23 22 19
18 17 18 16 16 17 19 19 17 14 15 13 19 19 28 25 17 16 16 25 29 27 27 26 27 26 33 36 32 13 22 25 26 24 35 26 23 28 22 27 20 17 21 20 27 18 22 24 14 14 10 14 13 14 19 21 17 19 13 13 18 14 14 17 12 27 23 30 19 21 19 20 11 7 21 18 29 21 25 27 26 31 32 27 25 26 26 20
18 18 18 16 16 17 19 18 16 15 17 20 21 27 23 16 16 16 16 17 24 24 28 28 26 27 32 36 21 23 23 26 22 24 27 37 28 23 23 25 18 22 25 26 23 20 19 8 14 16 15 17 19 15 18 22 21 19 17 15 17 17 22 22 12 29 25 25 13 16 8 13 5 9 15 23 24 26 26 28 24 19 21 20 19 19 20 23
19 17 17 15 15 17 17 18 14 15 14 15 25 29 28 27 25 15 18 21 19 33 23 28 26 25 38 24 20 22 17 28 29 24 28 32 25 31 26 27 24 26 20 22 22 20 17 14 20 19 21 20 21 22 22 20 20 22 19 17 18 20 17 20 9 28 23 19 10 16 15 19 9 13 21 24 32 26 24 29 25 23 21 20 22 21 17 15
18 17 16 15 14 14 15 15 11 12 14 21 23 24 21 26 20 19 15 12 22 25 16 23 30 34 32 28 20 26 21 33 22 26 25 31 24 31 25 26 34 28 21 21 27 28 16 16 24 25 22 22 23 24 17 17 21 17 26 14 22 22 20 22 12 8 16 30 17 11 20 15 7 17 19 21 30 24 23 29 26 24 22 19 20 21 20 19
19 18 16 15 13 9 10 13 11 19 16 19 9 17 20 25 15 20 16 14 19 20 21 15 28 28 37 19 26 20 20 28 22 19 22 33 27 25 25 18 24 16 25 20 26 35 23 20 24 25 24 26 24 27 25 21 17 30 14 12 16 16 21 23 15 12 16 11 14 10 19 15 12 9 21 26 31 27 23 23 22 21 19 19 18 21 19 19
19 18 17 16 14 6 9 16 15 17 19 21 23 23 23 23 10 13 8 13 22 17 23 19 24 20 26 23 22 30 13 13 23 24 19 24 20 28 24 17 21 20 21 24 31 13 17 22 24 27 24 26 30 23 15 19 29 21 9 16 16 18 21 16 13 14 17 16 14 10 13 17 13 14 19 29 27 25 26 25 22 20 19 19 20 20 19 19
19 18 17 16 15 13 10 13 13 19 15 16 21 25 23 16 13 11 10 13 15 15 18 18 17 19 12 22 27 18 27 15 19 12 17 22 28 21 33 17 15 18 18 21 16 16 27 23 21 24 28 30 19 17 21 19 24 14 12 14 18 13 11 9 15 12 10 27 19 17 12 21 11 19 22 18 28 26 27 25 23 21 22 20 20 18 18 18
20 18 17 17 8 10 13 12 19 24 20 22 24 24 23 10 9 9 12 14 8 10 11 15 22 17 14 28 23 21 24 19 17 16 20 27 29 20 17 13 15 19 24 18 20 15 18 20 17 27 32 24 17 15 23 20 17 8 17 19 15 12 9 9 13 14 7 17 26 18 15 20 22 24 28 26 29 32 25 21 21 20 19 18 17 18 18 19
18 17 17 14 10 10 14 17 18 16 15 18 20 21 10 10 11 12 13 23 17 15 11 12 18 19 22 23 23 24 22 19 20 15 24 21 30 24 13 23 21 12 16 16 21 23 18 24 29 24 17 24 17 21 20 21 16 11 22 24 10 16 3 7 9 5 17 19 17 14 18 17 29 22 16 13 20 40 37 31 29 25 20 20 17 18 19 18
18 17 19 15 13 11 14 15 10 19 20 21 20 13 7 10 8 21 21 14 17 15 11 11 14 20 22 21 17 30 32 24 18 21 20 25 22 31 23 22 30 25 20 22 24 18 23 24 21 15 15 27 27 17 17 23 20 18 12 10 18 14 16 19 12 16 17 23 12 8 13 13 10 10 12 13 30 22 31 38 32 28 23 21 20 19 18 18
18 18 19 17 14 11 19 19 20 20 17 19 15 6 10 10 20 18 22 13 9 9 16 18 15 16 21 22 22 23 21 21 18 15 16 23 17 24 16 19 11 21 21 16 10 20 20 11 25 21 15 23 26 28 19 26 24 18 22 16 18 20 18 17 11 12 8 14 9 16 12 14 6 7 15 17 20 25 23 22 24 25 25 22 20 19 18 18
15 15 14 12 14 17 15 11 16 14 15 17 9 5 7 14 20 8 19 16 17 12 13 21 27 24 24 30 20 22 25 21 16 20 23 19 19 23 25 24 17 20 15 14 25 25 18 25 29 29 29 17 28 28 19 12 15 21 17 17 16 17 22 17 15 22 18 15 18 13 23 17 13 7 11 16 23 22 22 23 22 23 22 20 20 20 19 18
12 15 13 12 15 16 13 14 14 12 12 12 8 13 21 27 7 7 8 13 14 14 17 23 25 21 20 23 19 23 21 25 23 13 27 19 24 22 29 27 25 14 17 14 23 19 22 24 11 24 7 18 20 17 19 20 11 13 18 14 13 23 17 11 17 14 14 15 20 12 14 5 13 8 15 15 22 25 24 24 24 23 20 20 21 20 17 17
10 13 14 19 17 14 15 17 12 13 12 12 15 19 28 17 14 7 8 13 13 19 21 24 15 13 8 18 20 20 24 15 19 17 22 22 15 22 20 24 30 22 19 25 16 18 19 26 9 26 12 22 19 19 18 24 33 19 14 28 23 11 14 7 5 6 11 12 11 9 14 14 13 13 15 16 18 20 21 22 23 23 20 18 18 17 17 17
14 14 18 18 22 15 16 16 15 12 11 12 12 22 16 19 20 19 12 15 16 14 11 17 14 11 8 20 19 22 26 20 15 20 16 21 20 20 26 22 19 19 21 17 12 15 18 14 12 23 24 20 23 21 11 19 16 20 32 22 8 8 12 17 15 9 11 16 13 6 16 17 18 18 14 13 17 19 18 21 21 20 19 19 17 17 17 18
15 16 21 21 19 15 16 16 15 14 13 12 19 12 10 22 17 19 13 18 15 14 13 9 14 10 11 13 17 21 23 24 11 21 11 25 24 22 17 29 23 26 22 21 10 19 10 13 18 20 21 21 19 16 12 16 12 18 22 10 25 19 21 12 17 14 15 17 14 8 12 17 20 19 23 20 21 17 18 21 21 21 20 20 18 18 17 16
15 16 19 17 18 18 19 18 15 13 13 17 17 19 17 23 19 19 18 18 17 15 9 9 10 10 10 9 9 16 15 30 12 16 16 26 21 30 29 19 21 28 24 16 23 12 12 11 13 19 25 19 19 19 23 23 18 17 5 19 15 12 14 17 26 13 23 10 12 10 18 15 14 14 25 28 28 27 23 21 20 21 18 18 19 19 18 15
11 9 15 13 20 19 18 16 16 15 18 20 15 23 12 17 21 21 25 23 19 8 8 11 9 9 10 8 13 7 9 9 17 13 15 19 25 22 31 23 18 30 28 20 15 10 11 8 10 18 21 26 25 30 27 23 21 21 14 15 23 21 11 13 11 16 15 19 16 17 15 14 8 13 23 17 19 21 22 23 21 20 18 18 16 17 17 16
8 9 14 15 22 18 20 19 20 22 20 13 15 19 17 20 14 15 17 14 15 12 17 14 7 7 10 12 10 8 8 4 7 10 15 20 25 21 23 27 19 23 29 22 20 13 13 11 17 12 29 29 20 22 19 20 16 15 18 15 13 18 11 21 15 14 12 17 18 21 16 9 6 11 18 26 21 20 18 19 19 18 17 16 16 17 17 17
8 10 9 14 13 14 25 22 21 15 20 18 20 22 20 17 23 22 20 16 18 25 19 25 18 19 13 16 13 10 6 10 7 8 9 14 15 16 13 19 22 16 30 28 23 12 15 10 12 9 17 20 11 19 20 17 16 18 14 10 12 13 14 15 16 13 11 12 16 13 18 10 8 10 17 23 23 22 20 21 18 16 16 17 19 17 14 14
10 14 8 12 14 12 22 13 11 17 18 19 15 22 26 29 22 23 24 15 17 15 20 21 17 11 11 14 7 9 9 10 6 8 10 11 14 25 11 20 18 22 20 21 14 14 13 16 13 11 10 7 10 8 23 20 20 22 20 9 8 15 13 16 13 13 15 8 10 9 11 8 10 11 25 24 22 23 22 21 21 18 18 20 18 16 15 13
8 12 12 8 8 13 18 18 16 13 17 17 19 22 17 24 21 21 22 19 21 11 13 12 10 16 9 12 13 11 10 8 4 5 10 8 16 24 14 17 20 26 24 15 24 15 28 15 12 13 17 15 14 10 18 19 21 22 19 21 10 7 11 9 11 5 14 11 15 19 15 9 7 14 24 26 24 23 21 19 22 21 19 19 18 15 13 12
13 10 9 9 8 12 21 15 10 12 17 16 19 19 21 21 17 25 23 22 19 17 16 13 14 6 7 5 13 9 8 6 10 7 7 6 21 23 17 12 19 14 18 15 15 18 17 14 14 13 19 23 27 29 31 28 29 15 9 23 19 13 12 17 18 9 14 7 14 18 10 10 14 18 23 24 25 22 20 19 17 20 18 18 16 13 12 13
8 10 5 7 12 11 12 14 10 6 8 9 9 14 14 21 21 22 22 28 21 22 20 8 7 8 9 11 10 9 9 8 8 8 9 14 18 17 9 15 12 15 16 17 23 18 19 15 13 11 15 13 11 7 7 14 12 20 10 9 21 22 12 18 16 12 17 7 12 9 30 25 21 20 24 25 27 26 24 23 24 21 18 16 14 13 13 17
7 6 8 8 9 6 12 12 15 12 10 6 8 7 9 14 18 18 9 12 11 10 8 4 4 6 6 8 7 8 9 11 6 7 10 10 9 13 18 14 13 19 15 20 24 20 15 19 13 8 7 10 10 5 3 12 13 8 10 11 11 20 20 11 17 23 13 19 5 10 29 35 24 23 22 24 24 23 21 21 21 21 18 17 16 15 14 17
8 5 6 9 11 12 11 15 16 16 19 16 15 14 14 13 14 14 10 5 6 8 5 9 4 9 11 15 7 9 5 6 5 6 10 6 9 13 19 15 16 18 18 20 21 21 23 23 10 8 6 7 7 10 11 10 12 11 13 12 11 17 21 16 12 10 13 22 18 22 22 31 24 23 24 25 27 26 24 22 19 18 18 15 17 19 18 19
7 11 11 9 6 5 10 10 12 16 19 18 15 12 14 11 14 13 7 10 7 6 6 8 5 10 12 16 13 8 4 5 6 6 4 6 6 10 12 14 14 19 17 11 12 16 28 17 13 10 8 14 11 12 12 12 12 14 12 12 14 10 15 14 8 10 12 9 26 34 21 22 24 24 22 21 21 25 23 21 20 18 18 17 17 18 18 18
10 10 8 6 13 12 10 10 9 11 13 18 19 11 17 12 13 11 5 3 6 5 6 11 9 12 14 12 12 12 7 5 6 5 4 3 13 8 8 7 11 17 21 13 10 6 21 14 11 11 8 7 11 14 19 20 14 18 22 20 21 16 15 14 15 18 29 22 25 29 27 20 10 19 22 21 22 23 24 22 21 18 17 18 18 18 18 18
10 11 12 15 13 9 9 8 8 7 9 11 12 10 11 11 10 5 6 4 7 8 6 7 6 9 11 13 12 10 9 8 8 7 6 4 9 12 8 9 13 15 20 17 12 13 17 10 7 13 14 5 10 12 15 18 20 19 17 18 20 18 14 8 22 17 25 23 27 26 25 21 16 24 23 23 24 27 26 23 21 18 17 18 18 18 18 19
13 9 12 10 8 8 9 10 7 4 6 8 13 15 17 9 8 6 12 7 9 12 11 11 10 9 9 10 10 7 7 6 8 6 6 6 8 12 9 13 13 10 15 11 13 14 14 16 14 12 16 6 14 7 8 10 12 12 10 13 16 12 17 20 23 15 27 40 31 28 23 25 31 30 29 23 24 23 24 25 22 18 17 19 19 19 18 18
Wind_Speed
11 12 12 12 12 12 12 11 12 12 12 12 14 15 15 15 15 14 14 15 15 15 14 15 16 17 17 18 19 20 18 10 14 9 5 16 5 16 10 9 6 8 8 3 4 2 3 2 1 2 0 1 3 1 3 2 2 1 3 4 6 5 5 6 4 1 2 5 7 8 3 4 2 4 3 9 12 11 9 10 8 17 13 13 16 18 17 17
12 12 12 12 12 12 13 12 12 12 13 13 14 14 15 15 15 14 14 15 14 14 15 15 16 16 18 18 19 19 14 10 12 12 19 7 10 14 16 17 16 11 7 2 4 4 3 2 4 2 3 1 1 3 3 2 4 4 2 4 9 5 9 2 1 4 4 9 10 12 9 0 0 3 1 7 3 13 12 7 13 17 16 16 17 17 17 17
12 12 12 12 12 12 13 13 13 13 13 14 14 15 15 14 14 14 13 14 14 14 14 15 16 17 17 18 19 17 11 10 6 11 20 17 24 18 16 17 16 8 10 4 4 5 5 2 3 3 2 0 2 5 1 4 2 5 4 6 8 5 7 4 4 5 5 7 11 14 8 3 2 2 1 6 7 14 13 9 9 16 17 16 15 15 15 16
12 12 12 12 12 13 13 13 13 13 13 14 15 14 15 15 14 14 14 14 14 14 13 15 16 17 18 18 18 12 6 6 4 8 5 10 21 25 22 19 15 10 9 4 4 5 2 2 1 3 0 4 3 3 3 5 2 2 4 5 6 5 7 8 4 6 6 5 7 10 7 7 8 3 2 9 7 3 8 15 18 18 19 18 17 16 15 16
12 12 12 12 13 13 13 13 14 14 14 14 14 14 14 15 14 14 13 14 14 14 14 15 16 17 18 17 18 7 8 3 3 2 3 6 9 18 22 22 13 9 10 3 1 1 2 0 0 1 2 3 2 0 5 4 4 1 5 7 7 5 5 5 3 5 4 7 3 5 5 6 6 4 7 8 8 5 10 8 17 21 22 22 19 16 16 18
12 12 12 12 12 13 14 14 15 14 14 14 14 15 16 15 14 14 14 13 14 13 15 15 16 16 17 17 11 4 1 1 3 5 8 9 6 14 17 15 10 7 6 3 3 1 1 1 3 1 2 3 4 6 3 6 3 5 6 5 6 9 9 3 3 4 2 6 6 2 5 3 4 2 2 3 4 7 3 7 10 15 16 17 17 18 18 18
12 12 12 12 13 13 14 15 15 16 15 15 15 15 15 15 15 14 14 14 14 14 14 15 15 16 16 13 8 2 2 9 5 7 11 12 3 11 12 11 9 6 5 4 3 3 4 3 4 4 2 4 6 7 10 3 4 7 8 5 8 10 10 9 7 7 5 7 10 4 3 5 4 5 3 6 3 8 14 13 14 15 15 15 16 15 20 19
11 12 12 13 13 14 14 15 15 17 16 16 16 15 15 16 15 15 14 14 14 14 14 15 15 15 15 8 5 0 1 8 16 5 10 13 7 10 14 7 7 4 5 9 6 6 3 4 6 3 4 5 3 8 5 5 4 6 9 8 8 5 6 8 7 7 6 7 10 6 4 9 3 0 2 4 7 14 16 15 15 15 15 13 14 15 18 18
11 11 12 13 14 14 14 15 15 16 16 16 16 16 16 15 16 15 14 13 14 13 14 13 14 13 11 4 2 4 9 12 1 9 13 9 8 3 9 5 4 8 5 4 5 5 4 5 5 5 5 6 8 7 5 3 5 5 9 7 9 8 6 6 5 4 4 3 2 0 5 9 0 5 6 6 10 13 16 16 15 14 14 14 12 15 17 16
11 12 12 13 14 14 15 15 15 15 16 17 16 16 16 16 16 15 15 14 13 13 13 13 14 13 8 4 3 3 9 8 6 3 11 12 9 7 3 1 8 7 5 6 4 4 6 7 8 5 4 7 4 6 1 5 5 3 5 11 12 14 10 5 6 6 4 5 3 4 2 5 4 7 3 1 10 15 16 15 12 14 16 13 12 14 14 15
11 12 12 13 14 14 15 15 16 16 16 16 16 16 16 16 16 16 15 14 14 14 13 13 12 10 6 3 2 9 5 5 3 8 11 11 14 7 6 2 8 7 10 6 8 9 11 9 3 2 2 4 3 4 2 3 1 5 6 5 7 8 6 5 4 5 0 2 6 5 5 2 7 4 9 8 7 16 18 14 13 12 13 12 15 14 12 11
11 11 12 12 13 14 14 15 16 16 17 17 17 16 16 16 16 16 16 15 15 14 13 12 12 6 6 7 8 13 2 5 10 11 12 13 11 10 11 9 5 9 9 8 8 8 10 10 1 0 4 3 2 3 7 5 3 6 6 5 7 8 8 6 6 5 2 3 5 4 1 1 2 0 10 15 10 13 17 14 13 12 11 13 14 13 11 11
12 11 11 12 13 14 14 15 15 16 16 16 16 16 16 17 16 16 16 16 14 14 13 12 8 6 6 10 13 21 18 18 18 19 16 8 9 11 9 9 10 9 11 9 7 7 9 7 2 2 5 2 4 3 4 7 6 4 2 4 4 3 4 8 4 4 4 3 6 4 3 5 5 5 7 12 11 12 15 13 13 11 11 13 13 11 10 9
13 11 10 12 12 14 15 15 16 16 17 16 16 16 16 16 17 17 17 17 16 15 13 12 5 4 7 10 10 8 9 9 11 13 16 9 7 13 12 11 9 11 7 9 9 5 6 5 4 5 2 4 4 4 8 4 3 3 4 1 2 0 3 4 4 5 6 4 7 5 4 6 6 9 6 9 13 16 13 13 12 11 12 12 11 11 10 7
14 12 11 12 13 14 15 15 16 16 17 18 17 17 17 16 17 18 18 16 15 13 12 8 3 4 4 9 12 21 24 15 10 16 17 9 10 10 12 10 11 12 10 10 4 4 5 5 3 3 3 3 5 4 7 4 1 1 4 5 2 3 4 6 4 3 5 2 7 4 5 7 9 9 9 11 13 16 14 12 12 12 12 12 10 10 10 8
13 14 12 11 13 14 14 15 15 16 17 18 18 18 18 19 18 18 19 16 15 14 6 4 4 5 3 10 6 6 3 4 9 17 12 11 11 11 14 7 9 7 9 7 6 3 4 4 5 4 3 4 3 1 4 5 4 1 5 5 3 3 4 3 3 4 8 3 1 9 5 4 6 6 10 14 14 15 15 12 11 14 14 12 11 10 9 10
13 14 13 12 13 12 14 15 15 16 17 17 19 18 18 18 20 19 18 16 8 5 4 2 1 7 3 5 6 7 7 7 6 3 4 11 12 14 10 7 5 7 8 5 7 7 3 4 2 3 4 6 3 3 4 6 5 4 0 4 5 4 2 2 5 2 4 5 2 4 5 7 6 1 13 9 14 14 16 13 12 13 11 11 11 11 10 9
12 12 14 13 11 12 13 15 16 17 17 17 16 17 17 19 21 18 11 6 4 5 5 5 3 3 11 6 6 6 1 4 4 6 8 4 13 11 9 6 4 5 5 8 4 5 3 3 3 5 2 6 5 5 9 10 7 4 2 2 5 1 3 5 3 4 3 4 7 2 6 11 9 2 7 15 13 16 16 15 14 14 12 12 11 11 10 9
11 11 14 13 12 13 13 15 16 17 16 16 18 17 20 21 10 3 4 2 3 1 1 4 5 6 2 3 11 7 6 3 3 4 4 7 4 7 6 6 5 3 3 5 2 7 1 1 3 3 10 10 11 9 8 5 6 6 5 5 3 4 4 3 4 5 4 5 8 5 10 11 10 4 7 12 14 15 16 13 10 10 10 10 10 10 9 9
11 11 12 13 13 12 13 14 15 16 16 9 7 7 4 2 1 1 0 3 6 7 4 8 12 6 14 16 3 3 5 6 4 6 6 4 5 5 6 3 3 3 3 9 3 9 4 7 10 13 10 8 5 7 7 7 5 5 4 5 7 6 5 4 6 4 4 2 8 12 10 6 10 7 9 17 11 10 14 13 12 12 11 10 10 10 10 10
13 12 13 13 13 12 13 14 15 14 14 6 6 6 3 2 0 2 2 8 13 12 13 9 16 15 14 12 4 10 11 11 4 5 6 5 4 6 5 4 3 5 4 5 6 1 6 8 14 8 6 6 7 5 6 6 6 7 5 4 6 4 8 8 6 4 4 5 7 11 9 9 12 7 6 12 11 13 14 13 13 14 11 11 13 13 11 10
14 13 13 12 12 12 13 14 15 13 9 1 5 7 6 9 2 3 3 5 8 16 15 16 11 12 14 18 13 3 6 7 16 13 9 10 6 10 2 6 4 8 3 5 6 5 11 16 8 6 5 6 6 7 8 9 6 8 7 6 3 7 4 6 4 3 4 6 10 9 10 11 13 5 6 16 15 11 14 18 19 17 14 13 13 15 14 12
13 12 14 13 12 12 13 14 12 9 5 4 5 7 10 9 5 6 3 6 11 11 12 13 13 15 19 16 9 5 9 10 8 10 3 8 8 13 6 7 6 4 4 7 13 9 8 11 6 7 6 6 6 7 8 7 6 7 5 4 8 5 3 6 3 3 5 6 7 10 12 11 5 1 4 11 16 11 9 11 16 19 20 17 16 16 15 13
13 13 14 13 11 11 11 12 12 7 4 7 9 12 11 4 3 6 5 4 7 13 14 15 14 12 16 12 5 13 11 7 6 14 8 7 11 8 6 11 6 5 11 11 11 10 6 3 7 8 8 9 9 7 8 8 9 9 8 5 5 7 8 6 4 3 3 13 6 6 2 5 1 4 5 1 9 13 10 11 7 5 10 12 12 12 13 15
16 13 13 12 11 9 10 12 7 6 5 5 11 15 13 14 9 3 3 3 4 9 8 13 10 10 16 6 4 3 8 5 12 9 3 7 9 10 12 5 5 11 11 8 6 8 9 5 11 10 10 9 10 10 13 10 8 9 10 10 11 9 6 1 2 4 2 6 4 9 2 6 3 0 12 9 9 10 10 13 9 10 12 13 14 13 11 9
15 14 13 11 11 8 7 5 3 4 8 8 7 6 6 8 7 7 3 2 7 4 2 4 8 10 7 7 10 7 2 8 9 12 10 5 8 9 5 8 8 15 13 9 9 5 5 4 13 14 12 12 11 10 8 11 10 7 9 8 12 11 3 1 4 2 2 6 6 5 9 2 3 8 11 12 14 14 9 11 11 11 11 11 12 12 12 11
15 14 13 10 10 3 1 4 1 8 7 8 1 3 9 12 3 11 3 2 5 3 4 2 6 2 5 9 12 11 4 8 4 8 9 10 12 9 12 8 6 3 6 3 1 9 8 10 12 13 14 13 11 11 9 12 9 11 3 5 8 7 5 4 4 4 7 3 7 1 6 6 4 2 5 7 17 17 14 13 12 10 11 10 11 12 12 11
15 13 12 12 12 4 4 2 5 6 8 10 10 9 12 12 3 6 1 3 4 5 3 2 4 2 2 13 14 11 4 3 4 6 10 9 9 11 10 11 10 11 10 8 15 2 9 9 12 14 13 12 15 10 5 10 9 4 4 7 7 5 5 6 6 7 5 3 6 2 1 5 1 2 2 17 13 17 19 17 13 12 11 10 12 12 12 12
16 13 12 12 13 9 3 3 2 8 6 5 8 11 9 9 2 4 1 0 3 2 4 6 3 3 1 14 13 9 9 1 1 4 8 12 15 7 12 9 6 9 9 12 5 4 7 9 11 11 10 13 6 5 8 9 8 8 5 5 5 3 3 6 7 6 3 1 6 6 4 6 2 6 7 4 15 13 14 14 13 12 12 12 11 11 12 11
16 12 10 12 6 3 2 2 8 12 9 10 11 12 14 3 2 2 3 5 0 2 1 1 4 4 6 10 7 10 10 2 3 1 6 7 13 7 4 3 4 9 8 8 7 6 6 6 7 9 13 8 6 7 10 10 11 1 5 5 2 2 4 4 5 4 3 3 9 11 7 9 3 8 11 10 12 14 13 8 9 10 10 11 11 11 10 11
13 12 8 10 5 2 0 5 7 5 5 8 11 13 4 2 2 2 5 3 5 2 2 1 1 5 10 10 8 8 10 6 4 3 3 4 8 4 5 8 2 3 7 5 9 9 4 10 8 5 7 7 10 9 8 11 10 7 4 7 3 5 1 2 2 2 5 6 10 8 8 11 11 7 9 4 4 20 18 15 15 14 14 12 11 10 11 12
13 12 11 6 5 2 2 5 1 6 7 11 12 6 2 3 4 5 5 5 2 6 2 2 2 1 8 9 7 10 7 3 6 2 4 5 6 9 9 9 10 7 8 11 10 8 10 10 9 7 7 13 9 9 8 9 10 10 6 4 9 2 3 4 1 4 6 7 5 4 8 3 2 3 3 7 7 14 19 20 19 17 16 13 11 11 11 11
11 11 12 8 7 4 8 8 7 7 6 9 7 2 2 2 5 5 6 4 1 2 3 2 4 6 4 8 8 10 9 6 3 3 3 7 5 8 6 5 6 6 6 5 5 7 8 5 6 11 7 9 11 11 7 9 11 10 10 6 7 4 5 5 2 1 1 6 5 3 8 2 0 1 8 5 11 12 9 10 12 16 17 14 13 11 11 10
10 11 6 4 6 7 6 4 5 5 6 8 1 1 2 2 4 2 5 2 5 6 6 6 12 7 4 8 8 9 8 9 3 3 3 5 8 7 8 9 8 9 1 5 7 10 7 10 12 11 9 9 12 12 10 5 7 10 4 8 7 6 3 4 3 7 7 7 3 1 7 2 5 0 5 5 10 10 9 10 12 12 12 12 12 12 12 11
7 6 2 2 5 7 7 6 5 3 3 5 1 2 6 6 1 1 1 3 5 7 7 13 7 1 2 9 7 10 8 5 7 2 4 6 10 7 10 12 8 5 4 5 4 3 14 7 4 9 3 10 11 9 10 7 5 4 4 7 6 10 7 3 6 6 5 2 1 6 2 2 2 2 5 8 8 9 11 11 13 12 11 12 12 12 10 10
1 3 1 2 3 6 7 6 4 2 2 3 2 4 7 3 3 2 1 4 5 7 11 10 5 1 1 6 6 11 12 2 5 4 3 5 8 9 8 6 9 8 7 7 4 4 6 7 3 7 6 13 9 9 6 10 9 5 6 10 9 6 7 2 1 0 4 6 2 0 5 3 1 3 7 7 8 6 9 11 12 12 13 11 10 10 10 10
2 0 2 4 9 9 6 6 4 3 4 4 3 7 2 3 5 4 4 7 8 8 4 6 3 3 2 3 5 9 9 6 2 7 4 1 4 9 9 9 7 10 7 7 2 3 8 4 5 6 10 6 8 14 7 11 7 5 10 9 4 5 6 5 3 1 1 6 1 1 4 8 7 1 2 4 7 7 2 9 11 10 11 11 9 10 10 10
1 3 5 8 11 8 8 7 7 5 4 3 6 3 2 4 1 5 7 9 7 8 3 1 2 2 1 6 1 7 9 8 4 6 4 5 3 6 8 7 8 9 10 6 1 2 2 1 6 8 9 7 2 7 4 4 5 10 10 5 6 3 7 2 4 4 3 4 1 0 5 4 4 5 11 10 10 8 1 4 9 9 9 9 10 11 10 10
2 2 4 2 9 7 7 8 7 3 4 3 2 6 2 6 7 8 8 8 9 8 2 0 0 2 3 3 4 6 6 7 4 5 4 3 4 8 10 7 7 11 9 10 7 3 1 3 2 3 9 6 5 6 9 9 0 1 3 9 4 5 3 4 6 4 5 2 4 3 9 3 3 2 14 14 15 14 13 12 8 8 8 9 9 9 10 9
2 2 2 2 10 1 7 7 6 6 3 5 3 4 3 6 7 10 9 8 5 2 1 2 2 2 3 1 5 2 1 1 5 3 4 2 6 4 11 12 4 11 13 10 5 4 4 3 2 4 6 6 8 6 10 9 6 3 2 2 2 1 2 4 1 4 4 5 4 5 5 3 2 3 9 8 10 9 8 11 9 8 8 9 8 8 8 8
1 1 4 4 7 5 6 5 5 5 3 1 3 5 6 6 4 6 10 11 5 3 4 3 2 1 1 4 5 5 2 2 0 1 3 5 8 1 7 8 7 9 12 10 8 3 1 1 6 2 2 8 7 3 4 8 8 7 7 6 5 4 4 7 6 2 3 6 4 6 4 3 2 2 9 12 10 11 10 12 10 10 10 9 8 8 9 7
2 3 1 5 5 3 8 7 3 2 1 3 4 3 5 7 9 13 11 8 7 6 5 8 9 5 3 4 4 5 2 1 1 1 1 3 5 6 5 11 9 7 7 7 10 5 4 2 3 3 5 9 6 5 10 8 6 6 8 4 6 2 5 5 5 5 2 2 6 5 7 4 2 3 6 13 12 12 12 13 11 10 10 10 9 9 9 8
2 3 0 3 5 2 8 3 2 3 4 5 6 11 11 10 10 10 11 9 8 6 7 7 8 5 6 5 3 4 5 2 2 1 2 1 2 10 4 12 11 13 5 3 6 3 4 1 3 3 0 3 3 5 6 6 7 3 1 2 4 4 4 6 4 5 6 3 3 2 3 1 3 1 8 11 11 12 10 13 12 10 10 10 10 9 9 6
2 3 3 2 1 4 7 5 6 5 6 5 8 10 8 8 8 8 9 10 6 4 6 5 6 10 4 7 3 3 6 1 2 1 1 1 2 6 5 8 13 8 8 5 7 6 5 2 5 5 0 2 1 3 1 2 3 4 3 4 4 2 3 4 4 1 4 6 9 8 5 3 2 8 11 12 13 13 12 11 13 12 9 9 10 8 6 4
4 3 4 1 2 6 7 1 3 5 7 6 6 10 9 7 8 13 12 12 11 10 8 4 1 2 2 2 2 3 3 3 1 3 1 1 2 3 4 6 10 6 7 6 8 6 4 3 3 4 7 8 9 9 10 8 7 1 1 4 5 7 4 2 6 1 4 1 3 7 2 0 7 11 15 16 15 13 11 12 11 13 12 10 9 6 5 5
2 3 1 2 1 3 4 1 1 1 1 3 4 7 8 8 9 10 14 15 14 11 10 4 1 2 3 3 1 2 2 1 2 2 3 3 3 2 5 9 6 4 5 14 9 8 3 1 2 4 7 6 4 2 3 8 4 7 5 6 5 5 6 4 5 5 6 2 5 1 11 13 12 13 15 16 15 15 14 14 14 12 11 10 9 8 8 8
1 1 2 2 3 0 3 4 4 4 3 2 1 2 3 6 6 6 4 4 3 4 2 1 1 0 0 2 1 2 3 3 3 2 1 2 3 2 6 2 5 0 4 5 12 6 3 1 3 4 3 3 5 1 1 9 7 4 6 7 3 5 6 7 6 7 7 11 2 0 16 18 13 10 13 16 15 14 13 13 13 12 10 10 10 9 10 10
2 0 0 3 1 4 4 6 7 8 9 7 4 3 5 7 5 3 3 1 2 1 1 4 2 1 2 2 0 1 3 3 1 1 3 1 3 6 6 3 1 11 7 1 7 5 6 5 6 5 1 4 5 2 3 3 2 6 8 5 5 4 6 7 6 3 7 6 9 12 14 17 13 15 16 16 17 16 15 13 12 11 10 10 11 12 11 10
2 3 3 3 1 1 4 3 2 6 8 8 4 6 7 7 8 3 1 3 3 2 2 1 2 3 3 2 1 2 0 2 2 1 0 3 3 4 5 5 5 12 10 1 4 1 7 5 6 5 4 9 7 5 3 8 2 6 5 2 1 4 7 7 4 6 7 5 17 20 14 13 14 14 13 12 13 16 13 12 11 11 12 11 11 11 11 11
2 2 3 2 4 4 4 2 2 4 6 8 5 4 3 5 8 4 1 1 1 2 2 0 4 3 4 4 2 1 2 3 2 2 1 1 4 3 0 1 2 8 10 4 2 3 5 3 6 5 4 4 5 4 7 7 8 6 8 10 10 6 1 3 4 6 13 11 14 17 13 9 3 9 12 13 13 14 14 14 13 12 11 12 12 11 10 11
2 3 4 4 3 3 4 2 3 4 2 2 3 4 2 5 5 1 2 1 3 3 1 2 0 4 3 3 3 4 5 5 5 4 1 1 1 2 0 1 3 4 9 6 5 5 3 3 1 5 6 1 4 4 3 7 11 9 8 13 13 8 2 1 5 2 7 12 16 13 12 6 9 12 12 13 15 17 17 15 13 10 11 12 12 11 12 12
5 4 6 4 2 3 3 3 3 0 2 2 1 1 0 6 5 3 3 4 1 2 2 2 3 2 5 4 5 5 4 3 3 1 2 0 1 2 2 1 1 1 2 3 1 3 0 6 4 6 8 0 4 3 2 4 6 4 5 7 9 5 1 4 5 5 9 24 15 12 11 12 17 18 18 15 15 15 16 15 13 11 11 12 12 13 12 11
Wind_Direction
334 333 333 331 331 327 328 328 327 328 329 330 329 331 330 329 324 317 317 317 317 319 317 321 322 322 324 327 327 328 332 329 314 309 269 243 216 234 234 220 213 210 194 215 268 300 295 197 232 258 69 106 255 213 222 209 189 190 217 184 233 215 222 226 212 175 268 314 296 326 307 52 336 350 155 70 57 87 74 68 64 58 68 95 108 116 123 123
331 333 331 329 327 327 326 326 326 327 325 326 327 327 328 326 321 316 319 318 319 319 323 322 324 325 324 326 327 329 336 310 294 282 240 215 211 225 234 241 252 262 134 199 202 208 185 209 225 159 141 233 230 225 147 256 165 181 208 162 232 205 239 219 234 289 335 288 299 308 303 130 142 267 203 86 135 99 72 50 85 83 83 93 105 117 122 121
329 330 329 328 327 326 325 323 323 324 324 325 325 326 326 322 319 317 317 320 318 320 320 318 321 323 324 326 326 334 327 311 280 260 265 220 229 229 230 235 236 209 167 170 211 189 189 187 205 149 189 190 266 233 207 258 182 219 170 221 238 214 247 236 214 249 235 280 308 301 292 357 325 308 27 124 159 114 119 118 87 106 114 114 118 119 121 117
327 326 327 326 326 324 323 322 322 321 323 324 324 326 324 320 317 318 317 318 319 322 323 322 323 325 323 326 328 329 335 275 275 248 248 239 210 215 218 227 228 199 190 208 159 177 186 323 13 175 138 191 276 217 250 242 197 258 167 215 231 230 251 260 243 255 277 281 281 273 314 340 335 339 64 149 89 81 156 154 147 144 135 132 131 129 125 112
322 324 323 324 324 323 319 320 317 319 321 321 323 321 321 318 315 315 318 315 319 319 321 322 323 323 325 326 323 333 312 0 269 242 258 301 228 210 210 215 210 182 180 176 157 278 267 166 48 332 208 239 243 332 242 245 216 281 207 211 221 256 252 265 265 272 282 287 317 321 8 299 297 35 29 141 131 218 184 200 145 141 140 138 136 132 123 113
321 321 322 320 321 320 319 315 317 316 317 321 318 320 319 317 313 311 312 315 316 320 321 323 323 327 326 329 316 295 287 146 295 307 338 321 233 197 203 207 182 163 168 179 152 94 137 201 150 175 229 206 222 193 252 210 199 243 275 266 237 231 240 265 228 246 269 286 292 340 280 281 24 1 356 53 164 190 79 114 119 122 125 128 129 130 117 116
317 320 321 320 319 319 318 317 315 314 315 315 316 315 316 314 312 308 308 313 315 317 317 321 324 326 330 333 295 156 223 280 336 258 1 358 299 159 158 155 147 144 148 174 184 191 197 167 149 209 215 231 249 211 237 233 199 215 249 249 255 237 234 242 255 258 243 270 286 243 297 342 19 33 339 63 350 95 104 112 112 114 117 124 126 123 121 126
314 318 320 320 318 318 318 317 316 314 313 313 312 312 313 311 311 307 307 308 312 313 319 319 322 326 334 343 342 106 236 254 251 332 16 3 349 122 129 128 145 139 158 199 174 203 169 171 196 178 212 201 216 197 226 221 216 214 246 245 254 241 228 243 249 261 271 251 249 323 345 287 98 281 73 51 91 105 110 115 113 117 121 123 128 119 123 129
309 311 315 315 317 316 316 315 315 312 312 312 311 310 310 309 308 308 306 306 308 312 313 318 322 325 338 296 284 338 240 235 355 347 352 328 350 67 129 134 165 169 204 198 192 198 141 232 209 185 222 212 246 249 237 193 288 215 227 241 248 251 237 216 223 233 225 239 222 62 292 295 274 109 54 122 107 109 114 114 123 125 125 133 121 113 125 137
305 308 307 311 312 313 313 314 314 312 311 311 310 309 308 306 306 304 304 305 306 309 312 317 320 329 335 325 301 231 258 263 282 332 12 6 0 316 231 107 160 181 195 223 194 172 197 218 186 182 220 276 237 243 238 163 232 212 215 220 229 236 239 241 229 247 222 221 224 179 254 277 310 97 93 84 125 120 116 119 126 130 134 134 116 123 130 136
300 302 306 307 311 312 313 314 314 313 312 312 310 309 307 305 303 301 302 301 302 304 307 312 316 321 321 357 237 231 266 303 52 7 349 350 337 324 275 228 178 175 198 220 207 190 221 235 227 356 306 236 292 279 224 210 246 284 274 300 279 275 270 264 259 251 169 241 220 166 208 251 313 93 150 154 161 131 125 130 132 136 137 126 125 130 140 132
291 295 301 305 307 310 312 312 314 315 315 315 313 308 305 303 300 299 298 299 301 302 304 306 310 304 285 263 227 227 292 315 333 323 314 316 307 291 287 285 223 188 185 202 223 208 217 233 194 223 222 22 287 297 280 255 231 247 238 266 278 279 269 243 236 249 167 260 189 157 87 291 327 177 170 153 168 139 128 132 136 139 128 120 124 130 135 133
285 289 295 301 304 308 309 312 313 314 313 312 311 310 305 302 301 299 298 297 297 300 302 300 303 286 289 276 237 250 277 289 299 302 298 289 283 278 264 272 243 220 187 193 222 215 213 225 195 216 250 289 258 250 284 311 283 280 287 203 268 295 271 255 229 202 192 237 170 126 224 268 263 238 165 150 161 134 127 135 140 136 126 124 132 133 121 131
281 281 288 296 300 302 308 310 312 312 311 310 306 304 303 301 300 299 294 291 294 298 299 297 288 273 260 257 279 263 263 253 274 288 279 291 305 288 298 282 257 228 213 197 221 205 207 217 190 230 267 230 270 319 318 316 0 305 268 112 182 81 270 267 185 163 165 212 160 135 190 265 248 252 174 166 155 138 137 141 142 132 127 129 132 124 118 124
274 280 283 289 296 302 306 310 312 312 312 308 305 303 303 300 297 294 290 291 290 293 293 297 276 299 255 271 261 261 249 255 260 254 256 264 259 297 283 276 262 221 214 212 213 205 205 201 181 232 253 208 232 266 283 294 317 290 351 276 312 156 273 292 295 172 188 260 151 128 218 215 233 242 169 175 162 141 140 148 140 132 129 132 123 115 115 112
284 280 279 287 292 300 305 306 309 310 308 310 307 305 300 298 293 287 284 280 283 284 285 262 230 203 308 290 246 325 277 184 229 226 237 204 228 230 252 282 306 250 211 232 235 231 207 181 205 195 251 278 254 208 307 328 319 313 180 261 255 146 237 337 288 171 203 190 173 164 217 266 285 229 174 167 163 144 141 148 142 133 134 131 126 120 117 114
282 279 278 282 290 298 301 305 306 307 309 308 310 304 302 295 287 282 279 279 272 256 221 246 189 172 260 226 322 299 243 222 234 234 197 194 200 215 236 268 266 260 218 217 211 216 199 184 172 213 206 218 162 161 238 265 277 284 21 208 216 190 225 225 292 301 209 186 233 210 195 226 232 119 161 172 158 147 143 152 143 139 138 132 128 125 126 123
280 281 279 280 286 294 300 302 306 310 310 310 310 310 301 292 283 285 282 257 236 230 231 216 257 257 257 250 284 233 291 258 198 212 224 187 192 214 214 230 262 267 190 210 227 201 171 216 159 218 226 209 187 171 180 222 193 218 269 262 284 268 175 203 162 262 174 216 213 204 222 237 241 198 157 168 165 153 152 155 153 146 139 137 130 129 123 120
275 282 281 278 282 288 296 303 305 311 313 312 311 305 293 282 274 220 246 171 140 39 320 203 168 160 225 208 241 293 286 261 262 194 218 186 185 195 204 219 260 301 207 180 239 183 156 175 158 188 217 205 209 192 187 193 176 203 188 205 212 208 240 204 237 260 168 197 226 181 220 232 237 208 147 170 162 160 156 146 131 131 131 129 127 123 121 119
280 271 275 276 279 286 299 302 307 312 316 317 327 322 314 43 77 314 270 205 230 206 221 158 201 270 315 286 213 211 296 292 285 210 225 184 157 168 210 181 230 204 205 196 175 199 114 189 205 210 208 209 209 173 168 211 207 212 202 205 234 228 252 246 232 221 194 174 216 218 227 231 240 207 160 161 158 154 145 145 143 144 140 133 126 121 120 120
279 275 272 272 276 286 294 303 308 313 317 322 332 330 290 265 128 273 171 223 223 235 248 218 189 212 234 264 310 335 346 320 270 295 226 163 191 124 211 146 201 225 214 186 173 204 160 212 225 206 180 190 205 173 177 211 237 232 231 212 250 223 235 232 232 217 202 165 250 228 216 235 239 222 152 153 143 164 155 148 144 148 141 135 128 125 124 125
289 277 274 270 273 283 295 299 305 311 312 3 308 287 268 259 258 44 340 289 250 230 237 242 227 239 255 261 261 303 293 287 303 286 267 174 187 178 202 174 177 207 152 184 183 182 206 218 206 179 181 177 201 191 186 198 222 238 217 230 246 256 260 291 271 259 228 182 241 222 210 233 239 221 127 157 163 170 167 159 156 150 144 136 132 131 133 134
283 274 267 266 273 285 294 301 303 318 312 277 253 253 253 253 265 256 233 269 274 251 234 228 232 232 247 256 247 187 231 231 250 272 237 187 172 197 149 193 200 191 200 194 193 189 210 231 183 175 172 175 206 196 189 206 220 229 236 212 226 237 224 277 305 252 216 188 231 213 203 236 257 41 126 174 151 166 174 158 154 154 150 148 143 140 138 134
292 281 277 273 273 285 303 306 313 302 243 232 239 229 242 270 281 349 348 260 294 267 218 224 211 215 235 227 193 189 205 231 222 263 255 198 191 163 192 195 191 194 220 210 207 202 208 119 160 172 187 187 203 206 191 194 223 235 213 203 220 236 231 197 252 309 250 228 217 79 124 291 341 191 63 48 137 127 107 101 103 82 102 114 118 124 132 136
299 286 272 265 271 288 303 320 297 260 260 243 246 246 250 252 248 251 304 289 251 272 187 225 196 204 229 185 197 163 191 240 222 241 228 200 174 158 210 162 181 221 219 212 215 220 226 214 165 185 200 200 199 209 207 188 214 238 236 199 221 230 240 276 332 16 320 272 262 146 108 243 297 90 137 139 109 101 123 127 134 130 127 127 127 126 124 122
305 291 270 263 265 289 350 319 257 319 321 273 249 262 240 250 220 172 160 289 287 265 110 239 140 246 168 203 149 212 330 267 205 224 226 237 189 188 149 200 193 209 203 204 212 226 197 208 180 190 198 207 207 210 205 180 209 206 237 180 222 231 227 278 305 39 307 234 243 149 168 240 335 124 150 141 125 125 127 132 138 135 133 130 128 129 131 129
302 289 276 258 258 286 37 255 338 339 308 272 192 342 314 315 110 152 99 223 278 201 202 87 166 326 159 150 155 142 184 254 200 211 218 218 197 176 181 196 172 217 184 187 162 222 184 202 190 188 197 205 208 215 199 177 178 227 198 194 213 216 204 234 249 206 239 252 308 203 138 143 81 252 128 120 134 137 136 140 139 138 134 129 128 129 129 127
305 300 281 257 253 191 182 273 332 285 240 271 311 313 318 309 350 187 301 324 270 119 182 219 253 157 212 146 155 180 219 243 163 211 198 209 197 175 199 189 189 187 179 187 210 136 172 194 191 190 194 204 214 207 167 169 190 226 206 206 220 175 176 203 211 233 228 245 282 271 186 84 69 212 140 128 126 140 143 145 144 140 134 128 130 129 124 121
305 301 278 256 252 253 219 210 247 260 259 293 313 305 304 292 247 135 198 168 241 175 109 110 126 95 143 145 163 183 243 132 194 155 180 194 206 174 194 190 173 185 206 209 201 143 200 195 196 191 193 214 205 179 204 180 200 239 211 209 223 150 153 199 222 216 280 207 250 236 182 109 100 176 157 170 138 155 151 145 144 143 139 135 128 120 114 110
292 304 294 264 271 16 297 221 227 247 274 300 296 299 299 293 53 119 163 255 19 275 249 169 206 193 148 154 159 185 228 239 249 100 161 181 180 164 193 123 158 183 213 218 216 214 187 193 188 199 203 203 183 209 201 208 215 186 195 230 220 106 181 235 208 166 71 216 245 224 197 128 162 217 176 168 177 151 144 143 135 132 121 119 118 114 116 116
295 303 274 248 234 217 170 260 248 244 279 297 306 297 288 46 126 161 228 245 344 356 35 48 263 125 145 155 157 194 228 238 256 232 160 145 176 169 140 186 182 164 204 212 218 230 232 189 211 210 189 191 189 208 210 208 211 212 210 202 227 300 8 256 272 81 188 238 248 229 192 144 137 236 237 246 178 157 151 147 149 140 136 129 123 119 116 115
300 295 272 238 239 230 197 238 354 342 333 319 314 331 63 80 8 207 216 354 357 315 4 355 66 204 174 154 156 183 199 200 251 202 174 175 162 185 184 185 172 167 205 196 210 203 231 214 207 210 187 185 191 198 220 205 205 206 211 148 168 247 151 256 188 211 198 200 253 187 163 135 138 200 262 294 179 172 157 156 153 144 136 131 128 123 116 114
298 289 266 245 248 241 240 261 303 302 316 314 314 313 86 127 214 218 272 341 211 279 0 343 348 313 202 159 184 181 206 219 179 238 167 185 150 205 209 189 182 155 176 194 145 181 238 251 209 207 209 199 182 190 183 206 207 194 202 162 148 161 184 212 236 178 277 278 254 221 164 148 343 121 346 279 168 162 146 136 127 134 133 132 126 119 115 112
300 297 270 251 254 243 257 274 277 302 342 327 314 90 64 212 240 167 227 299 285 336 343 352 319 315 182 185 183 173 199 232 157 211 212 188 188 185 212 222 165 182 145 151 174 186 185 223 234 189 208 177 194 195 183 182 185 204 174 142 170 146 159 192 182 176 197 206 232 326 162 247 131 312 6 7 131 129 120 113 113 112 113 115 115 110 110 112
323 317 291 274 263 255 247 247 256 265 337 320 90 155 183 215 347 229 357 12 343 336 336 324 300 260 204 194 176 176 191 210 213 227 225 178 199 191 194 209 200 157 149 132 219 142 212 231 257 196 221 174 196 193 170 155 176 206 167 92 130 206 132 147 199 149 194 174 231 5 57 358 61 328 21 40 82 113 126 120 119 117 119 120 118 118 119 116
19 240 151 290 257 252 231 235 232 187 214 244 167 185 219 178 199 311 246 247 337 345 334 323 356 356 238 180 184 179 193 197 193 185 280 206 190 194 203 208 202 183 157 188 196 185 184 225 228 180 216 182 187 160 197 160 197 212 139 203 208 141 117 116 25 182 100 73 14 263 131 86 183 31 28 33 25 75 117 121 120 122 127 122 119 121 121 119
238 217 236 225 240 236 218 208 155 76 243 238 175 226 209 297 270 325 299 332 348 333 11 352 329 18 325 194 168 182 180 197 215 159 243 222 188 195 192 214 188 184 199 150 264 188 153 242 255 179 203 238 177 175 183 189 146 144 198 211 116 149 120 129 197 315 51 156 215 163 171 150 148 217 133 86 94 341 67 120 119 125 126 120 125 123 122 120
273 252 264 252 244 219 205 190 151 154 234 180 211 232 147 251 241 290 314 320 334 328 330 254 278 352 350 17 276 177 172 172 209 156 230 203 266 206 182 206 198 197 191 185 132 252 126 173 210 211 195 204 178 142 186 263 163 173 206 131 161 162 221 253 115 197 163 164 198 32 161 176 201 149 147 164 150 142 165 117 123 129 127 120 123 117 111 111
309 279 300 320 325 204 184 164 121 192 207 180 219 230 292 253 279 277 268 272 280 292 341 91 174 325 24 345 300 308 173 183 193 179 170 220 214 200 197 186 205 201 195 179 209 259 116 155 265 229 197 187 176 140 206 209 251 74 98 160 173 129 186 137 197 172 125 168 119 156 173 223 201 174 176 163 170 161 151 147 135 133 129 122 121 119 118 117
284 315 267 345 334 250 156 153 153 206 204 199 169 237 324 313 284 274 258 237 280 229 255 350 217 292 319 244 287 290 316 161 172 213 176 192 208 238 202 183 194 193 203 184 211 175 271 153 231 258 212 146 211 190 200 180 167 152 155 268 198 167 223 122 133 136 169 158 153 129 188 252 263 179 174 145 152 149 147 134 126 127 122 114 110 113 110 106
236 328 288 316 308 333 146 139 178 199 195 299 300 279 258 260 304 300 307 301 310 314 235 229 187 203 281 345 318 317 310 11 81 217 188 193 182 187 234 197 169 192 194 201 219 180 212 193 193 294 174 202 218 208 140 166 176 167 168 196 169 126 123 168 251 1 106 110 166 142 206 272 253 310 172 154 146 148 142 131 126 129 122 112 114 118 117 112
337 301 310 274 331 338 151 161 199 161 250 207 205 207 256 257 264 266 280 268 230 252 248 260 250 230 245 245 231 299 296 326 245 141 300 165 221 196 224 214 193 203 165 190 202 191 162 168 140 194 214 204 206 198 201 175 146 149 148 217 161 129 107 105 153 245 77 55 114 136 121 256 238 252 179 156 153 147 144 133 128 125 117 121 127 126 120 135
217 255 37 334 345 248 164 150 142 175 216 243 266 273 267 277 274 287 286 297 308 270 268 241 244 209 219 233 231 258 287 257 196 219 205 200 229 222 293 202 200 209 144 179 167 212 140 154 180 239 276 267 298 228 202 176 139 122 194 142 110 177 181 162 162 183 143 153 95 32 74 238 305 162 138 137 136 133 135 128 125 120 125 129 132 130 134 138
265 268 292 211 9 167 180 170 179 194 217 245 238 259 252 256 270 279 269 264 240 255 243 270 240 205 191 190 226 197 263 33 281 141 319 248 247 216 246 231 197 211 162 205 177 186 207 243 140 152 31 156 18 28 287 305 185 183 177 196 174 161 177 201 116 128 151 210 166 127 167 221 168 132 123 127 134 137 133 124 126 126 130 135 133 133 125 119
266 235 218 249 174 178 189 236 161 184 212 232 247 254 257 254 242 249 259 264 253 251 270 240 172 104 85 32 269 282 251 164 274 293 209 230 250 281 9 23 217 205 186 182 172 141 128 214 103 148 171 170 179 178 201 203 212 287 145 163 181 189 182 130 180 177 164 299 121 117 99 198 124 134 132 138 137 128 123 123 126 131 140 139 130 115 112 110
327 328 99 150 110 149 298 261 44 149 204 253 265 255 247 263 263 252 245 250 244 250 250 242 301 95 123 118 315 270 305 187 172 275 343 318 311 300 39 340 293 195 204 168 164 117 151 183 119 143 156 189 205 206 203 141 157 205 209 168 189 197 176 136 109 122 177 181 65 327 141 136 144 152 145 148 143 139 137 139 138 141 144 134 125 123 122 117
308 250 320 63 79 316 275 283 267 238 227 220 241 261 248 247 280 274 242 276 207 207 192 181 221 86 266 63 246 310 254 296 300 287 274 282 253 255 329 276 271 94 8 180 162 105 100 99 261 130 153 193 204 241 215 152 174 182 174 181 143 184 177 150 156 213 161 101 5 18 147 136 165 153 147 147 142 137 140 142 143 144 141 132 129 125 123 118
295 347 12 270 298 170 197 256 237 256 262 278 267 271 269 279 287 289 297 259 304 344 88 327 21 179 198 209 90 334 323 330 350 304 305 306 322 336 358 306 100 4 11 154 175 129 142 157 232 142 202 45 34 9 62 88 132 171 175 168 164 163 143 167 200 185 152 159 176 173 167 148 162 166 158 154 148 145 145 144 137 133 124 124 128 128 125 120
253 300 269 278 274 265 215 244 241 240 260 241 255 259 275 270 272 233 219 311 7 328 79 316 291 295 313 323 153 213 277 18 327 292 5 329 22 349 8 332 352 12 5 94 170 171 130 180 199 180 65 32 1 17 49 106 93 51 26 12 262 175 171 176 176 165 175 157 150 159 174 158 154 157 149 141 135 129 128 128 129 132 134 131 131 129 127 121
328 343 309 283 246 280 280 255 236 234 243 248 252 236 239 256 267 286 294 103 354 301 308 140 268 301 330 328 313 218 221 203 194 297 288 103 344 38 329 102 308 341 5 11 333 321 133 247 198 133 75 11 342 25 55 91 103 75 30 33 33 349 101 132 104 86 79 73 126 133 131 118 71 119 118 121 122 124 128 138 141 138 135 135 134 133 124 112
245 210 219 283 300 215 219 258 244 231 232 292 213 278 269 274 274 288 259 204 218 232 211 230 301 340 317 345 356 326 281 247 202 217 252 178 145 246 98 287 54 351 343 13 8 321 79 198 46 93 99 337 316 16 91 85 83 79 41 19 3 5 61 104 122 229 117 132 126 117 118 122 125 123 119 126 136 138 141 143 140 142 140 139 137 130 123 118
294 237 244 250 281 335 35 303 290 312 278 233 276 286 302 301 297 331 346 301 320 219 224 295 313 9 307 322 288 258 266 250 241 161 138 201 162 212 190 173 125 102 308 350 283 301 134 137 96 105 102 213 276 288 86 57 42 22 7 351 335 300 98 74 52 40 148 138 132 145 183 156 148 144 138 146 144 144 144 148 140 139 145 142 136 130 126 122